Overview Statistics Trail Chart Weather Telemetry Raw packets
 

This is the latest recevied weather packets stored in our database for station/object KC5DAQ-26. If no packets are shown the sender has not sent any weather packets the latest 10 day(s).

<< 11 12 13 14 15 16 17 >>
Time Temp. Humidity Pressure Rain* Wind** Luminosity Snow
1788566106 31.67° C 74% 1015.1 hPa 0 mm - 79 W/m² -
1788566046 31.67° C 74% 1015.1 hPa 0 mm - 81 W/m² -
1788565987 31.11° C 74% 1015.2 hPa 0 mm - 83 W/m² -
1788565925 31.67° C 74% 1015.1 hPa 0 mm - 84 W/m² -
1788565866 31.67° C 74% 1015.1 hPa 0 mm - 86 W/m² -
1788565807 31.67° C 74% 1015.1 hPa 0 mm - 92 W/m² -
1788565746 31.67° C 73% 1015.1 hPa 0 mm - 95 W/m² -
1788565686 31.67° C 74% 1015.1 hPa 0 mm - 102 W/m² -
1788565627 31.67° C 74% 1015 hPa 0 mm - 109 W/m² -
1788565566 31.67° C 72% 1015.1 hPa 0 mm - 113 W/m² -
1788565506 31.67° C 72% 1015.1 hPa 0 mm - 128 W/m² -
1788565445 31.67° C 72% 1015 hPa 0 mm - 128 W/m² -
1788565385 31.67° C 72% 1015.1 hPa 0 mm - 128 W/m² -
1788565326 31.67° C 72% 1015.1 hPa 0 mm - 128 W/m² -
1788565268 31.67° C 73% 1015 hPa 0 mm - 132 W/m² -
1788565209 31.67° C 73% 1015.2 hPa 0 mm - 135 W/m² -
1788565146 31.67° C 73% 1015.2 hPa 0 mm - 141 W/m² -
1788565086 31.67° C 73% 1015.2 hPa 0 mm - 151 W/m² -
1788565026 31.67° C 73% 1015.2 hPa 0 mm - 157 W/m² -
1788564968 31.67° C 73% 1015.2 hPa 0 mm - 160 W/m² -
1788564906 31.67° C 72% 1015.2 hPa 0 mm - 165 W/m² -
1788564845 31.67° C 73% 1015.3 hPa 0 mm - 169 W/m² -
1788564787 31.67° C 73% 1015.3 hPa 0 mm - 169 W/m² -
1788564725 31.67° C 73% 1015.3 hPa 0 mm - 172 W/m² -
1788564665 31.67° C 72% 1015.2 hPa 0 mm - 174 W/m² -

* Rain latest hour (hover to see other rain measurements)
** Current wind speed in m/s (hover to see current wind gust speed)